Stations météo

réclame
Mon MeteoGroup
Gueret-St Laurent, France (7361): Température de l'air & dewpoint: 10.07.2018 12:00:00 - 16.07.2018 12:00:00 (CEST)Gueret-St Laurent, France (7361): Température de l'air 5cm: 10.07.2018 12:00:00 - 16.07.2018 12:00:00 (CEST)Gueret-St Laurent, France (7361): Température de l'air -20cm & Température de l'air -100cm: 10.07.2018 12:00:00 - 16.07.2018 12:00:00 (CEST)Gueret-St Laurent, France (7361): Vitesse du vent & gusts: 10.07.2018 12:00:00 - 16.07.2018 12:00:00 (CEST)Gueret-St Laurent, France (7361): Direction du vent: 10.07.2018 12:00:00 - 16.07.2018 12:00:00 (CEST)Gueret-St Laurent, France (7361): reduced air pressure: 10.07.2018 12:00:00 - 16.07.2018 12:00:00 (CEST)Gueret-St Laurent, France (7361): visibility: 10.07.2018 12:00:00 - 16.07.2018 12:00:00 (CEST)Gueret-St Laurent, France (7361): Ensoleillement: 10.07.2018 12:00:00 - 16.07.2018 12:00:00 (CEST)Gueret-St Laurent, France (7361): Quantités de précipitations: 10.07.2018 12:00:00 - 16.07.2018 12:00:00 (CEST)
Date & Time tt [°C] td [°C] tt 5cm [°C] tt -20cm [°C] tt -100cm [°C] ff [km/h] ff [knt] fx [km/h] fx [knt] dd ppp [hPa] vv [km] sd [min] rr [mm]
16.07.2018 12:00:00 - - - - - - - - - - - - - -
16.07.2018 11:00:00 - - - - - - - - - - - - - -
16.07.2018 10:00:00 - - - - - - - - - - - - - -
16.07.2018 09:00:00 - - - - - - - - - - - - - -
16.07.2018 08:00:00 - - - - - - - - - - - - - -
16.07.2018 07:00:00 - - - - - - - - - - - - - -
16.07.2018 06:00:00 - - - - - - - - - - - - - -
16.07.2018 05:00:00 - - - - - - - - - - - - - -
16.07.2018 04:00:00 - - - - - - - - - - - - - -
16.07.2018 03:00:00 - - - - - - - - - - - - - -
16.07.2018 02:00:00 - - - - - - - - - - - - - -
16.07.2018 01:00:00 - - - - - - - - - - - - - -
16.07.2018 00:00:00 - - - - - - - - - - - - - -
15.07.2018 23:00:00 - - - - - - - - - - - - - -
15.07.2018 22:00:00 - - - - - - - - - - - - - -
15.07.2018 21:00:00 - - - - - - - - - - - - - -
15.07.2018 20:00:00 - - - - - - - - - - - - - -
15.07.2018 19:00:00 - - - - - - - - - - - - - -
15.07.2018 18:00:00 29,5 13,3 29,2 21,1 18,7 9 5 20 11 NW 1011,4 20 53 0,0
15.07.2018 17:00:00 30,1 14,2 32,1 21,0 18,7 8 4 23 13 WSW 1011,6 20 58 0,0
15.07.2018 16:00:00 29,2 13,4 30,8 20,9 18,7 6 3 17 9 N 1012,1 20 43 0,0
15.07.2018 15:00:00 29,8 13,5 35,5 20,8 18,7 6 3 15 8 SW 1012,3 20 57 0,0
15.07.2018 14:00:00 29,7 11,7 37,4 20,7 18,7 4 2 18 10 NW 1012,7 20 60 0,0
15.07.2018 13:00:00 28,4 12,7 29,7 20,8 18,7 4 2 13 7 SSW 1013,3 20 48 0,0
15.07.2018 12:00:00 28,0 12,8 34,2 20,8 18,7 4 2 10 6 ENE 1013,8 20 60 0,0
15.07.2018 11:00:00 26,7 14,1 30,0 20,8 18,7 3 2 7 4 ESE 1014,1 20 60 0,0
15.07.2018 10:00:00 23,4 16,0 23,8 20,9 18,7 4 2 11 6 NE 1014,5 20 60 0,0
15.07.2018 09:00:00 18,7 14,6 18,8 21,0 18,7 8 4 14 8 ESE 1015,2 20 60 0,0
15.07.2018 08:00:00 15,7 13,7 13,8 21,1 18,7 6 3 11 6 E 1015,7 20 60 0,0
15.07.2018 07:00:00 13,5 12,6 11,3 21,1 18,7 8 4 12 6 ESE 1015,9 20 18 0,0
15.07.2018 06:00:00 13,2 12,1 11,7 21,2 18,7 6 3 11 6 E 1015,9 20 0 0,0
15.07.2018 05:00:00 13,1 12,3 9,9 21,3 18,7 6 3 8 4 E 1016,0 20 0 0,0
15.07.2018 04:00:00 13,9 12,8 11,1 21,3 18,7 5 3 10 6 ESE 1016,2 20 0 0,0
15.07.2018 03:00:00 14,7 13,2 12,6 21,3 18,7 6 3 11 6 E 1016,2 20 0 0,0
15.07.2018 02:00:00 15,2 13,9 11,5 21,3 18,7 6 3 11 6 ESE 1016,6 20 0 0,0
15.07.2018 01:00:00 15,2 13,7 12,3 21,3 18,7 2 1 7 4 E 1016,8 17 0 0,0
15.07.2018 00:00:00 16,4 14,6 13,1 21,3 18,7 4 2 5 3 E 1016,7 20 0 0,0
14.07.2018 23:00:00 17,9 15,0 15,2 21,2 18,7 3 2 10 5 ESE 1016,4 20 0 0,0
14.07.2018 22:00:00 20,3 15,3 16,0 21,2 18,7 3 2 5 3 SE 1015,7 11 0 0,0
14.07.2018 21:00:00 24,7 14,5 21,0 21,0 18,7 0 0 4 2 N 1014,7 20 47 0,0
14.07.2018 20:00:00 27,5 12,7 28,2 20,9 18,7 3 2 11 6 E 1014,4 20 60 0,0
14.07.2018 19:00:00 27,9 12,3 29,2 20,8 18,6 4 2 13 7 SSE 1014,6 20 60 0,0
14.07.2018 18:00:00 29,0 12,8 30,3 20,8 18,7 2 1 16 9 W 1014,7 20 60 0,0
14.07.2018 17:00:00 28,0 13,5 31,1 20,7 18,7 7 4 16 9 ENE 1015,0 20 60 0,0
14.07.2018 16:00:00 28,0 15,3 26,7 20,7 18,7 4 2 12 7 N 1015,5 20 46 0,0
14.07.2018 15:00:00 24,4 16,4 26,4 20,7 18,7 6 3 10 6 S 1016,4 20 0 0,0
14.07.2018 14:00:00 24,0 16,3 25,7 20,7 18,7 4 2 7 4 SW 1016,8 20 0 0,0
14.07.2018 13:00:00 24,4 15,9 27,1 20,7 18,7 2 1 5 3 W 1016,8 20 0 0,0
14.07.2018 12:00:00 23,5 14,8 26,3 20,8 18,7 0 0 6 4 N 1017,0 20 5 0,0
14.07.2018 11:00:00 21,7 14,8 21,6 20,9 18,6 0 0 7 4 N 1017,6 20 6 0,0
14.07.2018 10:00:00 18,1 14,0 18,8 20,9 18,7 5 3 10 5 E 1017,9 20 0 0,0
14.07.2018 09:00:00 16,0 13,3 15,9 21,0 18,7 6 3 13 7 ESE 1018,5 20 14 0,0
14.07.2018 08:00:00 14,1 12,3 13,5 21,1 18,7 8 4 13 7 ESE 1019,0 20 35 0,0
14.07.2018 07:00:00 12,8 12,2 9,5 21,2 18,7 7 4 11 6 ESE 1019,2 20 20 0,0
14.07.2018 06:00:00 11,8 11,0 9,1 21,3 18,7 0 0 7 4 N 1019,3 3,0 0 0,0
14.07.2018 05:00:00 12,5 11,9 9,1 21,3 18,7 6 3 8 4 ESE 1019,3 18 0 0,0
14.07.2018 04:00:00 12,6 11,8 9,1 21,4 18,7 3 2 4 2 ESE 1019,4 15 0 0,0
14.07.2018 03:00:00 13,1 12,2 9,8 21,4 18,7 2 1 6 3 ESE 1019,5 16 0 0,0
14.07.2018 02:00:00 13,9 12,8 10,6 21,4 18,7 3 2 4 2 ESE 1019,4 20 0 0,0
14.07.2018 01:00:00 14,8 13,3 11,5 21,4 18,7 0 0 3 2 N 1019,1 20 0 0,0
14.07.2018 00:00:00 16,2 13,9 12,7 21,3 18,7 0 0 3 1 N 1019,2 15 0 0,0
13.07.2018 23:00:00 18,1 14,2 15,1 21,3 18,7 2 1 3 2 S 1018,5 20 0 0,0
13.07.2018 22:00:00 19,8 13,0 16,4 21,2 18,7 3 1 4 2 WSW 1017,6 1,4 0 0,0
13.07.2018 21:00:00 24,7 13,3 20,5 21,0 18,7 0 0 7 4 N 1016,6 20 51 0,0
13.07.2018 20:00:00 26,9 11,8 27,1 20,9 18,7 4 2 10 5 WNW 1016,2 20 60 0,0
13.07.2018 19:00:00 28,0 10,2 28,8 20,8 18,7 3 1 13 7 S 1016,0 20 60 0,0
13.07.2018 18:00:00 27,3 9,2 29,5 20,6 18,7 6 4 20 11 NNE 1016,2 20 60 0,0
13.07.2018 17:00:00 27,7 11,3 30,6 20,5 18,7 8 5 18 10 NNW 1016,5 20 55 0,0
13.07.2018 16:00:00 27,0 11,5 30,5 20,4 18,7 5 3 15 8 W 1016,9 20 34 0,0
13.07.2018 15:00:00 27,0 12,6 30,4 20,3 18,7 4 2 20 11 NW 1016,8 20 40 0,0
13.07.2018 14:00:00 26,0 11,4 31,6 20,3 18,7 6 3 14 8 SW 1017,1 20 40 0,0
13.07.2018 13:00:00 26,1 11,8 33,5 20,3 18,7 5 3 11 6 SSE 1017,5 20 60 0,0
13.07.2018 12:00:00 25,0 12,2 32,0 20,4 18,7 4 2 9 5 SW 1017,6 20 60 0,0
13.07.2018 11:00:00 23,2 10,3 28,1 20,4 18,7 3 2 9 5 WNW 1017,5 20 60 0,0
13.07.2018 10:00:00 20,8 11,7 21,8 20,5 18,7 4 2 8 5 E 1017,8 20 60 0,0
13.07.2018 09:00:00 16,4 12,0 17,9 20,6 18,7 5 3 9 5 ENE 1018,5 20 60 0,0
13.07.2018 08:00:00 13,8 11,1 12,5 20,6 18,7 4 2 10 5 ESE 1018,8 20 60 0,0
13.07.2018 07:00:00 11,4 10,0 8,4 20,7 18,7 7 4 10 5 ESE 1019,3 20 21 0,0
13.07.2018 06:00:00 10,8 9,7 9,1 20,8 18,7 6 3 9 5 E 1019,3 20 0 0,0
13.07.2018 05:00:00 11,7 10,3 9,0 20,9 18,7 5 3 12 7 SE 1019,1 20 0 0,0
13.07.2018 04:00:00 12,1 10,7 8,6 20,9 18,7 6 3 11 6 E 1019,1 20 0 0,0
13.07.2018 03:00:00 12,1 10,8 8,9 20,9 18,7 3 2 5 3 ESE 1019,2 20 0 0,0
13.07.2018 02:00:00 13,3 12,0 10,2 20,9 18,7 4 2 5 3 SE 1019,2 20 0 0,0
13.07.2018 01:00:00 13,9 11,8 10,3 20,9 18,7 0 0 6 3 N 1019,0 20 0 0,0
13.07.2018 00:00:00 15,4 12,2 12,8 20,9 18,8 0 0 4 2 N 1018,7 20 0 0,0
12.07.2018 23:00:00 17,1 11,1 14,1 20,8 18,7 0 0 4 2 N 1018,1 20 0 0,0
12.07.2018 22:00:00 19,8 11,0 17,2 20,8 18,7 3 1 8 4 NW 1017,1 0,6 14 0,0
12.07.2018 21:00:00 22,3 11,1 21,3 20,7 18,7 5 3 17 9 N 1016,4 20 43 0,0
12.07.2018 20:00:00 24,2 9,7 24,1 20,5 18,7 10 6 20 11 NNE 1015,9 20 56 0,0
12.07.2018 19:00:00 23,6 9,9 23,6 20,4 18,7 12 6 24 13 NNE 1015,7 20 34 0,0
12.07.2018 18:00:00 25,4 10,4 25,7 20,3 18,7 13 7 23 12 N 1015,5 20 39 0,0
12.07.2018 17:00:00 24,9 10,0 27,7 20,2 18,7 8 4 21 12 NE 1015,6 20 22 0,0
12.07.2018 16:00:00 25,2 9,5 30,3 20,1 18,7 8 4 21 12 E 1015,8 20 54 0,0
12.07.2018 15:00:00 24,3 10,9 25,6 20,1 18,7 6 3 27 15 ENE 1015,9 20 49 0,0
12.07.2018 14:00:00 23,3 10,4 26,0 20,1 18,7 13 7 27 15 NNE 1016,3 20 51 0,0
12.07.2018 13:00:00 22,8 9,6 29,8 20,1 18,7 12 7 29 15 ENE 1016,4 20 60 0,0
12.07.2018 12:00:00 22,3 9,1 28,2 20,2 18,7 18 10 31 17 NE 1016,4 20 60 0,0
12.07.2018 11:00:00 21,1 9,3 26,1 20,2 18,7 14 7 23 13 E 1016,5 20 60 0,0
12.07.2018 10:00:00 19,7 11,5 22,0 20,4 18,7 6 3 13 7 E 1016,8 20 60 0,0
12.07.2018 09:00:00 15,2 12,1 15,5 20,5 18,7 0 0 5 3 N 1017,3 20 60 0,0
12.07.2018 08:00:00 10,9 10,1 8,2 20,6 18,8 3 2 5 3 ENE 1017,8 20 60 0,0
12.07.2018 07:00:00 8,0 7,4 3,8 20,7 18,7 2 1 5 3 E 1018,2 14 22 0,0
12.07.2018 06:00:00 7,1 6,4 3,5 20,8 18,7 0 0 4 2 N 1018,3 10 0 0,0
12.07.2018 05:00:00 7,8 7,0 4,7 20,8 18,7 0 0 7 4 N 1017,9 2,2 0 0,0
12.07.2018 04:00:00 8,3 7,7 4,9 21,0 18,8 4 2 6 3 E 1018,1 15 0 0,0
12.07.2018 03:00:00 9,2 8,6 5,2 21,0 18,7 3 2 5 3 SSE 1018,1 16 0 0,0
12.07.2018 02:00:00 9,5 8,4 5,6 21,1 18,8 3 1 5 3 S 1018,3 5 0 0,0
12.07.2018 01:00:00 10,5 8,9 6,5 21,1 18,7 0 0 6 3 N 1018,5 20 0 0,0
12.07.2018 00:00:00 12,4 9,8 8,8 21,1 18,7 4 2 9 5 S 1018,4 20 0 0,0
11.07.2018 23:00:00 13,2 9,6 9,7 21,1 18,7 3 1 10 5 WSW 1018,1 20 0 0,0
11.07.2018 22:00:00 15,6 9,3 12,7 21,0 18,7 8 4 18 10 NE 1017,4 20 0 0,0
11.07.2018 21:00:00 18,2 9,8 16,7 21,0 18,7 11 6 22 12 NE 1016,9 20 58 0,0
11.07.2018 20:00:00 20,3 9,8 18,9 20,9 18,7 13 7 22 12 N 1016,6 20 41 0,0
11.07.2018 19:00:00 20,0 9,8 20,0 20,8 18,7 16 9 26 14 NNE 1016,6 20 29 0,0
11.07.2018 18:00:00 21,6 10,4 22,6 20,8 18,7 11 6 26 14 N 1016,4 20 46 0,0
11.07.2018 17:00:00 20,5 9,4 21,8 20,7 18,7 13 7 32 17 NNE 1016,7 20 25 0,0
11.07.2018 16:00:00 21,7 9,9 23,4 20,6 18,7 15 8 27 15 N 1016,6 19 36 0,0
11.07.2018 15:00:00 20,9 9,5 24,2 20,6 18,7 13 7 29 15 NNE 1017,0 20 30 0,0
11.07.2018 14:00:00 21,5 10,0 26,6 20,6 18,7 12 6 26 14 NE 1017,1 20 45 0,0
11.07.2018 13:00:00 20,1 9,0 24,4 20,7 18,7 11 6 27 15 ENE 1017,3 20 49 0,0
11.07.2018 12:00:00 19,6 9,5 24,6 20,7 18,7 9 5 22 12 NE 1017,5 20 52 0,0
11.07.2018 11:00:00 18,7 9,5 25,6 20,8 18,7 6 3 19 10 E 1018,0 20 60 0,0
11.07.2018 10:00:00 17,3 9,2 22,4 20,9 18,7 8 4 15 8 ENE 1018,3 20 60 0,0
11.07.2018 09:00:00 16,0 10,7 14,4 21,0 18,7 3 2 6 3 ENE 1018,6 20 60 0,0
11.07.2018 08:00:00 12,3 11,7 7,4 21,2 18,7 0 0 3 1 N 1018,9 20 60 0,0
11.07.2018 07:00:00 9,0 8,5 4,7 21,3 18,7 0 0 5 3 N 1019,4 1,8 21 0,0
11.07.2018 06:00:00 8,7 7,9 4,8 21,4 18,8 0 0 2 1 N 1019,4 0,8 0 0,0
11.07.2018 05:00:00 9,5 8,6 5,7 21,4 18,7 0 0 3 2 N 1019,2 0,3 0 0,0
11.07.2018 04:00:00 10,6 9,7 6,4 21,5 18,7 2 1 6 3 ESE 1019,0 1,6 0 0,0
11.07.2018 03:00:00 11,3 10,0 8,1 21,5 18,7 0 0 7 4 N 1018,9 20 0 0,0
11.07.2018 02:00:00 12,4 11,3 9,4 21,5 18,7 2 1 8 4 S 1018,8 20 0 0,0
11.07.2018 01:00:00 13,4 12,0 9,9 21,6 18,7 0 0 4 2 N 1018,6 19 0 0,0
11.07.2018 00:00:00 14,7 12,2 11,2 21,5 18,7 0 0 6 3 N 1018,3 20 0 0,0
10.07.2018 23:00:00 16,9 13,0 13,3 21,5 18,7 0 0 5 3 N 1018,2 20 0 0,0
10.07.2018 22:00:00 19,8 12,3 17,2 21,4 18,7 4 2 13 7 NNW 1017,6 1,9 1 0,0
10.07.2018 21:00:00 21,7 13,6 20,9 21,3 18,7 4 2 10 5 NW 1017,2 20 26 0,0
10.07.2018 20:00:00 22,4 13,2 22,5 21,3 18,7 4 2 19 10 NNW 1017,0 20 0 0,0
10.07.2018 19:00:00 23,9 12,8 25,0 21,2 18,7 9 5 23 12 NNW 1016,6 20 23 0,0
10.07.2018 18:00:00 24,4 12,0 25,8 21,1 18,7 9 5 24 13 NNW 1016,7 20 29 0,0
10.07.2018 17:00:00 24,7 11,6 26,1 21,0 18,7 14 7 27 15 NNE 1017,0 20 27 0,0
10.07.2018 16:00:00 25,0 12,9 25,3 20,9 18,7 11 6 25 14 NNE 1017,1 20 22 0,0
10.07.2018 15:00:00 24,0 12,0 26,8 20,9 18,7 13 7 24 13 NNE 1017,7 20 26 0,0
10.07.2018 14:00:00 25,1 12,0 26,4 20,9 18,7 13 7 26 14 NNE 1017,7 20 50 0,0
10.07.2018 13:00:00 24,2 11,2 30,0 20,9 18,7 15 8 33 18 NNE 1018,0 20 56 0,0
10.07.2018 12:00:00 23,6 11,3 28,0 21,0 18,7 14 8 28 15 NE 1018,3 20 60 0,0

tt = Température de l'air
td = dewpoint
tt 5cm = Température de l'air 5cm
tt -20cm = Température de l'air -20cm
tt -100cm = Température de l'air -100cm
ff = Vitesse du vent
fx = gusts
dd = Direction du vent
ppp = reduced air pressure
vv = visibility
sd = Ensoleillement
rr = Quantités de précipitations

stations d'obs. à proximité